Weather History for Mobile, AL

Change the Weather History Date:

Monday, February 18, 2013

  Actual Average Record
Temperature  
Mean Temperature 52 °F 54 °F  
Max Temperature 65 °F 65 °F 80 °F (2000)
Min Temperature 39 °F 44 °F 19 °F (1900)
Degree Days  
Heating Degree Days 13 11  
Month to date heating degree days 178 225  
Since 1 July heating degree days 1089 1346  
Cooling Degree Days 0 0  
Month to date cooling degree days 0 0  
Year to date cooling degree days 26 7  
Growing Degree Days 3 (Base 50)    
Moisture  
Dew Point 43 °F    
Average Humidity 63    
Maximum Humidity 83    
Minimum Humidity 43    
Precipitation  
Precipitation T in 0.18 in 4.06 in (1926)
Month to date precipitation 3.95 3.27  
Year to date precipitation 6.82 8.92  
Snow  
Snow 0.00 in 0.00 in - ()
Month to date snowfall 0.0 0.1  
Since 1 July snowfall 0.0 0.1  
Snow Depth 0.00 in    
Sea Level Pressure  
Sea Level Pressure 30.19 in    
Wind  
Wind Speed 15 mph (SE)    
Max Wind Speed 29 mph    
Max Gust Speed 37 mph    
Visibility 10 miles    
Events      
T = Trace of Precipitation, MM = Missing Value Source: NWS Daily Summary

Daily Weather History Graph

Daily Weather History Graph

Search for Another Location

Airport:

Trip Planner

Search our weather history database for the weather conditions in past years. The results will help you decide how hot, cold, wet, or windy it might be!

Date:

Astronomy

Feb. 18, 2013 Rise Set
Actual Time 6:30 AM CST 5:43 PM CST
Civil Twilight 6:06 AM CST 6:08 PM CST
Nautical Twilight 5:37 AM CST 6:36 PM CST
Astronomical Twilight 5:09 AM CST 7:04 PM CST
Moon 11:40 AM CST (2/18) 12:59 AM CST (2/18)
Length of Visible Light 12h 02m
Length of Day
11h 13m
First Quarter, 58% of the Moon is Illuminated
Feb 18
First Quarter
Feb 25
Full
Mar 4
Last Quarter
Mar 11
New
Mar 19
First Quarter

Hourly Weather History & Observations

Time (CST) Temp. Windchill Dew Point Humidity Pressure Visibility Wind Dir Wind Speed Gust Speed Precip Events Conditions
12:56 AM 41.0 °F 38.0 °F 32.0 °F 70% 30.28 in 10.0 mi SE 4.6 mph - N/A   Clear
1:56 AM 41.0 °F 38.0 °F 32.0 °F 70% 30.27 in 10.0 mi SE 4.6 mph - N/A   Clear
2:56 AM 39.9 °F 35.8 °F 33.1 °F 77% 30.25 in 10.0 mi SE 5.8 mph - N/A   Clear
3:56 AM 39.9 °F 35.1 °F 34.0 °F 79% 30.24 in 10.0 mi SE 6.9 mph - N/A   Clear
4:56 AM 42.1 °F 39.2 °F 36.0 °F 79% 30.26 in 10.0 mi SE 4.6 mph - N/A   Clear
5:56 AM 43.0 °F 39.5 °F 37.9 °F 82% 30.26 in 10.0 mi SE 5.8 mph - N/A   Partly Cloudy
6:56 AM 44.1 °F 40.1 °F 39.9 °F 85% 30.27 in 10.0 mi SE 6.9 mph - N/A   Scattered Clouds
7:56 AM 51.1 °F - 43.0 °F 74% 30.27 in 10.0 mi SE 9.2 mph - N/A   Mostly Cloudy
8:56 AM 59.0 °F - 43.0 °F 55% 30.28 in 10.0 mi SSE 13.8 mph 23.0 mph N/A   Scattered Clouds
9:56 AM 61.0 °F - 39.9 °F 46% 30.28 in 10.0 mi SSE 21.9 mph 27.6 mph N/A   Scattered Clouds
10:56 AM 63.0 °F - 39.9 °F 43% 30.29 in 10.0 mi SSE 15.0 mph 26.5 mph N/A   Scattered Clouds
11:56 AM 63.0 °F - 42.1 °F 46% 30.25 in 10.0 mi SE 24.2 mph 33.4 mph N/A   Mostly Cloudy
12:56 PM 62.1 °F - 42.1 °F 48% 30.22 in 10.0 mi SE 24.2 mph 33.4 mph N/A   Mostly Cloudy
1:56 PM 62.1 °F - 43.0 °F 50% 30.19 in 10.0 mi SE 26.5 mph 33.4 mph N/A   Mostly Cloudy
2:56 PM 60.1 °F - 43.0 °F 53% 30.16 in 10.0 mi SE 23.0 mph 36.8 mph N/A   Mostly Cloudy
3:56 PM 60.1 °F - 44.1 °F 55% 30.15 in 10.0 mi SE 20.7 mph 29.9 mph N/A   Overcast
4:56 PM 57.9 °F - 44.1 °F 60% 30.14 in 10.0 mi SE 21.9 mph 32.2 mph N/A   Overcast
5:56 PM 57.0 °F - 45.0 °F 64% 30.13 in 10.0 mi SE 15.0 mph 23.0 mph 0.00 in   Overcast
6:56 PM 57.0 °F - 46.0 °F 67% 30.12 in 10.0 mi SE 18.4 mph 25.3 mph N/A   Overcast
7:56 PM 57.9 °F - 46.9 °F 67% 30.11 in 10.0 mi SE 17.3 mph 26.5 mph N/A   Overcast
8:56 PM 59.0 °F - 48.0 °F 67% 30.10 in 10.0 mi SSE 20.7 mph 28.8 mph N/A   Mostly Cloudy
9:56 PM 57.9 °F - 50.0 °F 75% 30.08 in 10.0 mi SSE 20.7 mph 27.6 mph 0.00 in   Overcast
10:56 PM 59.0 °F - 51.1 °F 75% 30.04 in 10.0 mi SE 16.1 mph 26.5 mph N/A   Mostly Cloudy
11:07 PM 60.8 °F - 51.8 °F 72% 30.04 in 10.0 mi SSE 17.3 mph - N/A   Overcast
11:56 PM 61.0 °F - 52.0 °F 72% 30.04 in 10.0 mi SSE 16.1 mph - N/A   Overcast